Regional Weather Roundup
Issued by NWS

Home | Current Version | Previous Version | Text Only | Print | Product List | Glossary On
Versions: 1 2 3 4 5 6 7 8 9 10 11 12 13 14 15 16 17 18 19 20 21 22 23 24 25 26 27 28 29 30 31 32 33 34 35 36 37 38 39 40 41 42 43 44 45 46 47 48 49 50
819
ASUS45 KTFX 231310
RWRMT
MONTANA REGIONAL WEATHER ROUNDUP
NATIONAL WEATHER SERVICE GREAT FALLS MT
600 AM MST THU NOV 23 2017

NOTE: "FAIR" INDICATES FEW OR NO CLOUDS BELOW 12000 FEET WITH NO
SIGNIFICANT WEATHER AND/OR OBSTRUCTIONS TO VISIBILITY.

MTZ001>007-043-231400-
WEST OF THE DIVIDE

CITY           SKY/WX    TMP DP  RH WIND       PRES   REMARKS
KALISPELL      CLOUDY    53  45  74 S14       29.80F
MISSOULA       CLOUDY    39  39 100 VRB7      29.96F FOG
BUTTE          FAIR      32  29  88 NW6       30.07F WCI  26
MULLAN PASS    RAIN      42  40  92 SW13G26   29.93F FOG
ANACONDA         N/A     48  36  61 S15G24    30.00F
DEER LODGE       N/A     48  37  66 S10G16    30.01F
EUREKA           N/A     55  46  71 MISG      29.74F
HAMILTON         N/A     52  37  58 S15       29.98F
LIBBY            N/A    N/A N/A N/A CALM      29.75F
RONAN            N/A     57  44  62 SE12      29.93F
$$

MTZ008-052>055-231400-
SOUTHWEST MONTANA

CITY           SKY/WX    TMP DP  RH WIND       PRES   REMARKS
BOZEMAN        FAIR      35  30  82 SE7       30.04F WCI  29
DILLON         FAIR      43  34  70 SW8       30.08F
W YELLOWSTONE  CLOUDY    41  37  87 E5        30.25S
ENNIS          CLOUDY    45  37  76 S10       30.16F
$$

MTZ009-010-012-014-046-048-049-054-231400-
EAST SLOPES AND CENTRAL MONTANA

CITY           SKY/WX    TMP DP  RH WIND       PRES   REMARKS
CUT BANK       FAIR      54  41  61 SW39G46   29.67F
GREAT FALLS    FAIR      58  36  43 SW29G36   29.80F
MALMSTROM AFB  FAIR      59  38  46 SW24G30   29.81F
HELENA         FAIR      39  37  92 CALM      29.94F
BOWMANS CRNR   MOCLDY    53  37  55 SW17G29   29.84F
CHOTEAU          N/A     57  39  51 SW18G30   29.79F
FAIRFIELD      MOCLDY    58  38  48 SW21G40   29.78F
POWER          FAIR      56  38  50 SW30G43   29.77F
RAYNESFORD     MOCLDY    61  36  39 W21G33    29.83F
ULM            FAIR      59  38  44 SW12      29.85F
$$

MTZ011-013-016-021-045-047-050-051-231400-
NORTH CENTRAL MONTANA

CITY           SKY/WX    TMP DP  RH WIND       PRES   REMARKS
HAVRE          FAIR      53  41  63 SW12      29.72F
LEWISTOWN      FAIR      56  36  47 SW24      29.86F
N BAR RANCH    FAIR      57  34  41 SW18G29   29.90F
CHINOOK          N/A     63  39  42 SW18G24   29.70F
DENTON         MOCLDY    50  38  64 S15G21    29.80F
GEYSER         MOCLDY    57  37  46 SW25G36   29.80F
GRASS RANGE    FAIR      55  36  48 SE5       29.82F
STANFORD       MOCLDY    58  35  41 W13G24    29.85F
WINIFRED       FAIR      56  38  50 SW18G24   29.81F
$$

MTZ017>020-022>027-061-062-231400-
NORTHEAST MONTANA

CITY           SKY/WX    TMP DP  RH WIND       PRES   REMARKS
GLASGOW        FAIR      42  38  85 S3        29.73F
GLENDIVE       FAIR      47  39  74 SW10      29.82F
JORDAN           N/A     47  38  71 SW7       29.81F
SIDNEY         FAIR      35  34  96 S7        29.77F WCI  29
WOLF POINT     FAIR      28  25  88 SW6       29.75F WCI  22
MALTA          CLEAR     45  39  81 CALM      29.73F
PLENTYWOOD       N/A     32  30  93 CALM      29.71S
POPLAR           N/A     36  34  93 W3        29.75F
$$

MTZ028>42-056>058-231400-
SOUTHCENTRAL AND SOUTHEAST MONTANA

CITY           SKY/WX    TMP DP  RH WIND       PRES   REMARKS
BAKER          FAIR      41  37  86 CALM      29.88S
BILLINGS       FAIR      52  38  58 W17       29.94F
LIVINGSTON     FAIR      53  39  59 W29G39    29.99F
MILES CITY     FAIR      51  40  65 CALM      29.86F
BIG TIMBER     CLEAR     52  37  58 W21       29.98F
FORSYTH          N/A     54  37  54 CALM      29.86F
HARLOWTON      FAIR      47  35  65 W10       29.93F
LAUREL           N/A     52  37  58 SW14      29.96F
ROUNDUP          N/A     51  35  54 SW12      29.83F
$$

REGIONAL REPORTS...DAKOTAS

CITY           SKY/WX    TMP DP  RH WIND       PRES   REMARKS
WILLISTON      FAIR      29  27  92 SW7       29.75S WCI  22
MINOT          FAIR      36  32  85 SW17      29.71F WCI  26
DICKINSON      FAIR      45  39  79 W14       29.80S
BEACH          FAIR      48  41  76 W17       29.86S
CROSBY         FAIR      34  34 100 SW15      29.69F WCI  24
TIOGA          FAIR      32  34 100 SW8       29.74F WCI  25
WATFORD CITY   FAIR      37  37 100 SW8       29.76S WCI  31
BISMARCK       FAIR      26  22  84 CALM      29.83F
GRAND FORKS    CLOUDY    29  27  92 S7        29.88F WCI  22
FARGO          CLOUDY    28  22  78 S5        29.93S
RAPID CITY     FAIR      43  35  73 SW3       29.96F
$$

REGIONAL REPORTS...WYOMING/IDAHO/WASHINGTON

CITY           SKY/WX    TMP DP  RH WIND       PRES   REMARKS
GILLETTE       FAIR      51  36  56 SW21      30.02S
SHERIDAN       FAIR      48  36  63 SW6       29.96F
BUFFALO WY     FAIR      51  28  41 S3        30.04F
CODY           FAIR      58  35  42 W10G18    30.10S
YELLOWSTONE LA   N/A     33  33 100 CALM      30.31F
IDAHO FALLS    FAIR      34  34 100 N6        30.23F FOG     WCI  29
SALMON         FOG       37  37 100 CALM      30.15F VSB 3/4
BOISE          FAIR      47  45  93 CALM      30.10S FOG
SPOKANE        CLOUDY    56  51  84 SW23G31   29.82S
$$

REGIONAL REPORTS...ALBERTA

CITY           SKY/WX    TMP DP  RH WIND       PRES   REMARKS
EDMONTON       CLEAR     18  12  79 NW6       29.29S WCI   9
CALGARY        PTCLDY    52  36  54 SW10G17   29.44F
LETHBRIDGE     CLEAR     55  43  62 SW29G40   29.54F
MEDICINE HAT   PTCLDY    52  41  66 S14       29.53F
$$

REGIONAL REPORTS...SASKATCHEWAN

CITY           SKY/WX    TMP DP  RH WIND       PRES   REMARKS
SWIFT CURRENT  CLEAR     41  36  81 SW18      29.52F
REGINA         PTCLDY    19  18  93 SE12      29.61F WCI   7
SASKATOON      CLOUDY    19  18  93 SE12      29.54F WCI   7
$$




USA.gov is the U.S. government's official web portal to all federal, state and local government web resources and services.